Weather History for Key West, FL

Change the Weather History Date:

Thursday, November 22, 2012

  Actual Average Record
Temperature  
Mean Temperature 69 °F 75 °F  
Max Temperature 72 °F 79 °F 88 °F (1880)
Min Temperature 65 °F 71 °F 55 °F (2006)
Degree Days  
Heating Degree Days 0 0  
Month to date heating degree days 0 0  
Since 1 July heating degree days 0 0  
Cooling Degree Days 4 10  
Month to date cooling degree days 174 250  
Year to date cooling degree days 4510 4458  
Growing Degree Days 18 (Base 50)    
Moisture  
Dew Point 51 °F    
Average Humidity 55    
Maximum Humidity 68    
Minimum Humidity 41    
Precipitation  
Precipitation 0.00 in 0.06 in 0.93 in (1942)
Month to date precipitation 0.10 1.70  
Year to date precipitation 46.30 37.01  
Snow  
Snow 0.00 in - - ()
Month to date snowfall 0.0  
Since 1 July snowfall 0.0  
Since 1 September snowfall 0.0  
Snow Depth 0.00 in    
Sea Level Pressure  
Sea Level Pressure 30.08 in    
Wind  
Wind Speed 13 mph (North)    
Max Wind Speed 18 mph    
Max Gust Speed 28 mph    
Visibility 10 miles    
Events      
T = Trace of Precipitation, MM = Missing Value Source: NWS Daily Summary

Daily Weather History Graph

Daily Weather History Graph

Search for Another Location

Airport:

Trip Planner

Search our weather history database for the weather conditions in past years. The results will help you decide how hot, cold, wet, or windy it might be!

Date:

Astronomy

Nov. 22, 2012 Rise Set
Actual Time 6:48 AM EST 5:38 PM EST
Civil Twilight 6:23 AM EST 6:02 PM EST
Nautical Twilight 5:56 AM EST 6:30 PM EST
Astronomical Twilight 5:28 AM EST 6:57 PM EST
Moon 1:55 PM EST (11/22) 1:38 AM EST (11/22)
Length of Visible Light 11h 38m
Length of Day
10h 50m
Waxing Gibbous, 71% of the Moon is Illuminated
Nov 22
Waxing Gibbous
Nov 28
Full
Dec 6
Last Quarter
Dec 13
New
Dec 20
First Quarter

Hourly Weather History & Observations

Time (EST) Temp. Dew Point Humidity Pressure Visibility Wind Dir Wind Speed Gust Speed Precip Events Conditions
12:53 AM 68.0 °F 51.1 °F 55% 30.05 in 10.0 mi NNE 11.5 mph - N/A   Clear
1:53 AM 68.0 °F 52.0 °F 56% 30.05 in 10.0 mi North 12.7 mph 20.7 mph N/A   Clear
2:53 AM 66.0 °F 55.0 °F 68% 30.04 in 10.0 mi NNE 15.0 mph 21.9 mph N/A   Clear
3:53 AM 64.9 °F 52.0 °F 63% 30.05 in 10.0 mi NNE 12.7 mph - N/A   Clear
4:53 AM 64.9 °F 52.0 °F 63% 30.06 in 10.0 mi NNE 12.7 mph - N/A   Clear
5:53 AM 64.9 °F 52.0 °F 63% 30.07 in 10.0 mi North 13.8 mph 21.9 mph N/A   Clear
6:53 AM 64.9 °F 52.0 °F 63% 30.08 in 10.0 mi North 13.8 mph 20.7 mph N/A   Clear
7:53 AM 66.0 °F 50.0 °F 56% 30.10 in 10.0 mi North 13.8 mph 24.2 mph N/A   Clear
8:53 AM 66.9 °F 48.0 °F 51% 30.12 in 10.0 mi North 11.5 mph 24.2 mph N/A   Clear
9:53 AM 69.1 °F 48.9 °F 49% 30.13 in 10.0 mi North 11.5 mph 23.0 mph N/A   Clear
10:53 AM 69.1 °F 48.0 °F 47% 30.12 in 10.0 mi North 16.1 mph 24.2 mph N/A   Clear
11:53 AM 70.0 °F 48.0 °F 46% 30.10 in 10.0 mi North 15.0 mph 23.0 mph N/A   Clear
12:53 PM 71.1 °F 46.9 °F 42% 30.08 in 10.0 mi North 15.0 mph 20.7 mph N/A   Clear
1:53 PM 71.1 °F 46.9 °F 42% 30.06 in 10.0 mi North 15.0 mph 23.0 mph N/A   Clear
2:53 PM 71.1 °F 48.0 °F 44% 30.06 in 10.0 mi North 13.8 mph 21.9 mph N/A   Clear
3:53 PM 71.1 °F 50.0 °F 47% 30.06 in 10.0 mi North 13.8 mph - N/A   Clear
4:53 PM 70.0 °F 51.1 °F 51% 30.07 in 10.0 mi North 11.5 mph 19.6 mph N/A   Clear
5:53 PM 68.0 °F 53.1 °F 59% 30.07 in 10.0 mi North 11.5 mph 19.6 mph N/A   Clear
6:53 PM 69.1 °F 54.0 °F 58% 30.08 in 10.0 mi North 12.7 mph - N/A   Clear
7:53 PM 69.1 °F 52.0 °F 54% 30.10 in 10.0 mi North 15.0 mph 21.9 mph N/A   Clear
8:53 PM 69.1 °F 50.0 °F 51% 30.12 in 10.0 mi North 11.5 mph 20.7 mph N/A   Clear
9:53 PM 68.0 °F 48.9 °F 50% 30.14 in 10.0 mi NNE 12.7 mph - N/A   Clear
10:53 PM 66.9 °F 51.1 °F 57% 30.14 in 10.0 mi NNE 12.7 mph 19.6 mph N/A   Clear
11:53 PM 64.9 °F 52.0 °F 63% 30.13 in 10.0 mi NNE 10.4 mph - N/A   Clear